Regional Weather Roundup
Issued by NWS

Home | Current Version | Previous Version | Text Only | Print | Product List | Glossary Off
Versions: 1 2 3 4 5 6 7 8 9 10 11 12 13 14 15 16 17 18 19 20 21 22 23 24 25 26 27 28 29 30 31 32 33 34 35 36 37 38 39 40 41 42 43 44 45 46 47 48 49 50

000
ASUS45 KCYS 241310
RWRWY

WYOMING REGIONAL WEATHER ROUNDUP
NATIONAL WEATHER SERVICE CHEYENNE WY
700 AM MDT TUE APR 24 2018

NOTE:  "FAIR" INDICATES FEW OR NO CLOUDS BELOW 12,000 FEET
WITH NO SIGNIFICANT WEATHER AND/OR OBSTRUCTIONS TO VISIBILITY.

WYZ001-241400-
YELLOWSTONE NATIONAL PARK

CITY           SKY/WX    TMP DP  RH WIND       PRES   REMARKS
LK YELLOWSTONE   N/A     19  13  77 NE5       30.44R WCI  12
W YELLOWSTONE  NOT AVBL

$$
WYZ002>013-054>058-071-098>099-241400-
NORTHERN WYOMING

CITY           SKY/WX    TMP DP  RH WIND       PRES   REMARKS
JACKSON        FAIR      30  20  66 NE10G17   30.38R WCI  21
CODY           MOCLDY    31  24  75 CALM      30.50R
GREYBULL       CLOUDY    32  30  92 CALM      30.50R
WORLAND        CLOUDY    31  29  92 SW3       30.49R
SHERIDAN       CLOUDY    34  32  92 S6        30.50R WCI  29
BUFFALO        CLOUDY    33  27  78 NW6       30.50R WCI  28
GILLETTE       CLOUDY    32  30  92 NW7       30.48R WCI  26
HULETT         LGT SNOW  32  32 100 MISG      30.48R VSB 1
NEWCASTLE      FAIR      32  27  80 NW14G22   30.43R WCI  22

$$
WYZ014>020-022>026-101>103-241400-
CENTRAL WYOMING

CITY           SKY/WX    TMP DP  RH WIND       PRES   REMARKS
BIG PINEY      CLOUDY    29  21  72 SW13      30.40R WCI  19
PINEDALE       FLURRIES  28  23  80 W7        30.40R WCI  21
DUBOIS         LGT SNOW  27  23  86 E6        30.41R WCI  20
LANDER         CLOUDY    31  25  78 W3        30.46R
RIVERTON       CLOUDY    32  22  66 NE10      30.46R WCI  24
CASPER         CLOUDY    31  26  82 N9        30.46R WCI  23
DOUGLAS        CLOUDY    32  28  85 NW13      30.46R WCI  22

$$
WYZ021-027>030-104>119-241400-
SOUTHERN WYOMING

CITY           SKY/WX    TMP DP  RH WIND       PRES   REMARKS
EVANSTON       CLOUDY    29  26  89 E8        30.34R WCI  21
KEMMERER       CLOUDY    28  23  80 N7        30.38R WCI  21
ROCK SPRINGS   FAIR      28  21  75 NE10      30.40R WCI  19
DIXON          CLOUDY    33  24  69 NE18      30.35R WCI  22
RAWLINS        CLOUDY    28  22  78 NE12      30.40R WCI  18
SARATOGA       CLOUDY    30  25  80 N10G16    30.38R WCI  21
LARAMIE        CLOUDY    27  23  85 N14       30.36R WCI  16
CHEYENNE       CLOUDY    30  27  88 MISG      30.36R
TORRINGTON     CLOUDY    35  31  85 NW17G25   30.41R WCI  25
PINE BLUFFS    CLOUDY    32  32 100 N18       30.39R WCI  20

$$



USA.gov is the U.S. government's official web portal to all federal, state and local government web resources and services.